sat.trackr.live / text

‹ back to catalog

IRIDIUM 113

NORAD 42803 · 2017-039A

PAYLOAD ACTIVE UNKNOWN

§ Identity

Operator
Country
US
Launch date
2017-06-25
Launch site
AFWTR
Launch vehicle
Mass (kg)
RCS (m²)

Purposes: comms

External: N2YO · Heavens-Above · Gunter

§ Orbital elements

Epoch: 2026-09-20T01:20:19.162176Z

Period
100.40 min
Inclination
86.3918°
Eccentricity
0.0002339
Mean motion
14.34217603 rev/d
Perigee alt
776.0 km
Apogee alt
779.3 km
Semi-major
7,155.8 km
B*
1.6371e-6
RAAN
282.5216°
Arg perigee
92.3845°
Mean anomaly
267.7618°
Rev number
48,478

§ Raw data

IRIDIUM 1131 42803U 17039A   26263.05577734  .00000024  00000+0  16371-5 0  99922 42803  86.3918 282.5216 0002339  92.3845 267.7618 14.34217603484787

JSON: /api/v1/satellites/42803 · /tle

For live sub-satellite position, see the globe view (requires WebGL).

§ Visibility from observer

Set your observer location to see the next 7 days of passes ≥ 10°. The values pass through the URL so the page stays shareable.

No JS? Fill the form by hand. The geolocation button needs JavaScript.

§ Radio — SatNOGS DB

ModeDescriptionDownlinkUplink
FM Iridium 113 1.623 GHz

1 transmitter · refreshed weekly from db.satnogs.org